Home   Weather   Lund   Past weeks
Flag for Sweden

Past Weather in Lund, Sweden — Yesterday and Last 2 Weeks

Now
52 °F

Clear.


Feels Like: 50 °F
Forecast: 70 / 53 °F
Wind: 6 mph from West

Location: Malmo / Sturup

Current Time: Aug 21, 2019 at 5:28:39 am

Latest Report: Aug 21, 2019 at 4:50 am


Visibility: 10 mi

Pressure: 30.21 "Hg

Humidity: 100%

Dew Point: 52 °F

Location of LundLocation

Past Weather in Lund — Graph

°F

Lund Temperature Yesterday

Maximum temperature yesterday: 70 °F (at 4:20 pm)
Minimum temperature yesterday: 52 °F (at 5:20 am)
Average temperature yesterday: 63 °F

High & Low Weather Summary for the Past Weeks

 TemperatureHumidityPressure
High75 °F (Aug 10, 2:50 pm)100% (Aug 6, 4:50 am)30.21 "Hg (Aug 6, 4:50 am)
Low48 °F (Aug 14, 5:20 am)38% (Aug 7, 1:20 pm)29.62 "Hg (Aug 18, 6:50 pm)
Average63 °F79%29.83 "Hg
* Reported Aug 6 4:20 am — Aug 21 4:20 am, Lund. Weather by CustomWeather, © 2019

Note: Actual official high and low records may vary slightly from our data, if they occured in-between our weather recording intervals... More about our weather records

Advertising

Lund Weather History for the Previous 24 Hours

Scroll right to see more
 ConditionsComfort  
Time TempWeatherWind HumidityBarometerVisibility
4:20 am
Wed, Aug 21
52 °FClear.3 mph100%30.21 "Hg10 mi
3:50 am50 °FClear.2 mph100%30.21 "Hg10 mi
3:20 am48 °FLight fog.2 mph100%30.21 "Hg1 mi
2:50 am50 °FClear.3 mph94%30.21 "Hg10 mi
2:20 am50 °FClear.2 mph94%30.18 "Hg10 mi
1:50 am52 °FClear.1 mph94%30.18 "Hg10 mi
1:20 am52 °FClear.2 mph94%30.21 "Hg10 mi
12:50 am52 °FClear.3 mph94%30.21 "Hg10 mi
12:20 am55 °FClear.5 mph88%30.18 "Hg10 mi
11:50 pm
Tue, Aug 20
55 °FClear.5 mph88%30.18 "Hg10 mi
11:20 pm55 °FClear.3 mph82%30.18 "Hg10 mi
10:50 pm59 °FClear.6 mph77%30.18 "Hg10 mi
10:20 pm61 °FClear.5 mph72%30.18 "Hg10 mi
9:50 pm57 °FClear.5 mph82%30.18 "Hg10 mi
9:20 pm61 °FClear.5 mph68%30.18 "Hg10 mi
8:50 pm63 °FClear.6 mph64%30.15 "Hg10 mi
8:20 pm64 °FSunny.7 mph64%30.15 "Hg10 mi
7:50 pm66 °FSunny.8 mph60%30.15 "Hg10 mi
7:20 pm66 °FPassing clouds.12 mph64%30.15 "HgN/A
6:50 pm68 °FSunny.8 mph60%30.15 "Hg10 mi
6:20 pm68 °FPassing clouds.13 mph56%30.15 "HgN/A
5:50 pm66 °FBroken clouds.13 mph64%30.15 "HgN/A
5:20 pm68 °FPassing clouds.18 mph56%30.12 "HgN/A
4:50 pm68 °FPassing clouds.17 mph53%30.12 "HgN/A
4:20 pm70 °FPassing clouds.18 mph53%30.12 "HgN/A
3:50 pm68 °FPassing clouds.17 mph56%30.12 "HgN/A
3:20 pm68 °FScattered clouds.20 mph56%30.12 "HgN/A
2:50 pm66 °FScattered clouds.20 mph64%30.12 "HgN/A
1:50 pm66 °FScattered clouds.18 mph64%30.09 "HgN/A
1:20 pm68 °FScattered clouds.17 mph60%30.09 "HgN/A
12:50 pm68 °FScattered clouds.17 mph60%30.09 "HgN/A
12:20 pm68 °FPassing clouds.16 mph56%30.09 "HgN/A
11:50 am66 °FPassing clouds.17 mph64%30.09 "HgN/A
11:20 am68 °FPassing clouds.17 mph64%30.09 "HgN/A
10:50 am68 °FPassing clouds.17 mph64%30.09 "HgN/A
10:20 am66 °FPassing clouds.15 mph73%30.09 "HgN/A
9:50 am66 °FScattered clouds.14 mph68%30.09 "HgN/A
9:20 am66 °FScattered clouds.13 mph68%30.09 "HgN/A
8:50 am64 °FPassing clouds.13 mph78%30.07 "HgN/A
7:50 am61 °FSunny.6 mph94%30.07 "Hg10 mi
7:20 am57 °FPassing clouds.5 mph100%30.07 "HgN/A
6:50 am54 °FSunny.3 mph100%30.07 "Hg10 mi
6:20 am54 °FSunny.3 mph100%30.07 "Hg10 mi
5:50 am54 °FSunny.6 mph100%30.07 "Hg10 mi
5:20 am52 °FClear.6 mph100%30.04 "Hg10 mi
Weather by CustomWeather, © 2019

See weather overview